METAR Formatted Surface Weather Observation
Issued by NWS

Current Version | Previous Version | Text Only | Print | Product List | Glossary On
Versions: 1 2 3 4 5 6 7 8 9 10 11 12 13 14 15 16 17 18 19 20 21 22 23 24 25 26 27 28 29 30 31 32 33 34 35 36 37 38 39 40 41 42 43 44 45 46 47 48 49 50
776
SAUS43 KABR 210801 COR
MTR8D3
METAR K8D3 210756Z AUTO 33027G37KT M04/M12 A2979 RMK AO1 PK WND
32045/0738 PRESRR SLP100 T10441117



USA.gov is the U.S. government's official web portal to all federal, state and local government web resources and services.